Location: Azat
(46.0765°N, 1.7600°E)
Time: 09:38:57
(UTC+00:00)

MOS 1 - Pass Details

Date: 09 April 2020
Orbit: 879 x 891 km, 99.2° (Epoch: 04 June)

Event Time Altitude Azimuth Distance (km) Brightness Sun altitude
Rises 19:11:25 0° 156° (SSE) 3,467 7.0 -7.3°
Reaches altitude 10° 19:13:47 10° 154° (SSE) 2,533 6.3 -7.7°
Maximum altitude 19:19:24 72° 72° (ENE) 931 4.3 -8.6°
Drops below altitude 10° 19:25:04 10° 349° (N) 2,558 7.2 -9.5°
Sets 19:27:29 0° 347° (NNW) 3,504 7.9 -9.9°
